Weather History for Hollywood, FL

Change the Weather History Date:

Sunday, March 3, 2013

  Actual Average (KFLL) Record (KFLL)
Temperature  
Mean Temperature 57 °F 72 °F  
Max Temperature 63 °F 79 °F 89 °F (2007)
Min Temperature 51 °F 65 °F 32 °F (1980)
Degree Days  
Heating Degree Days 8 1  
Month to date heating degree days 3  
Since 1 July heating degree days 105  
Cooling Degree Days 0 7  
Month to date cooling degree days 21  
Year to date cooling degree days 377  
Growing Degree Days 7 (Base 50)    
Moisture  
Dew Point 41 °F    
Average Humidity 59    
Maximum Humidity 80    
Minimum Humidity 42    
Precipitation  
Precipitation 0.00 in 0.08 in 0.58 in (2005)
Month to date precipitation 0.22  
Year to date precipitation 6.81  
Snow  
Snow 0.00 in - - ()
Month to date snowfall  
Since 1 July snowfall  
Snow Depth -    
Sea Level Pressure  
Sea Level Pressure 30.06 in    
Wind  
Wind Speed 9 mph (NW)    
Max Wind Speed 16 mph    
Max Gust Speed 26 mph    
Visibility 10 miles    
Events Rain    
T = Trace of Precipitation, MM = Missing Value Source: NWS Daily Summary

Daily Weather History Graph

Daily Weather History Graph

Search for Another Location

Airport:

Trip Planner

Search our weather history database for the weather conditions in past years. The results will help you decide how hot, cold, wet, or windy it might be!

Date:

Astronomy

Mar. 03, 2013 Rise Set
Actual Time 6:42 AM EST 6:23 PM EST
Civil Twilight 6:19 AM EST 6:46 PM EST
Nautical Twilight 5:52 AM EST 7:13 PM EST
Astronomical Twilight 5:25 AM EST 7:40 PM EST
Moon No Moon Rise 10:34 AM EST
Length of Visible Light 12h 27m
Length of Day
11h 41m
Waning Gibbous, 64% of the Moon is Illuminated
Mar 3
Waning Gibbous
Mar 4
Last Quarter
Mar 11
New
Mar 19
First Quarter
Mar 27
Full

Hourly Weather History & Observations

Time (EST) Temp. Dew Point Humidity Pressure Visibility Wind Dir Wind Speed Gust Speed Precip Events Conditions
12:53 AM 51.1 °F 41.0 °F 68% 30.04 in 10.0 mi WNW 4.6 mph - N/A   Clear
1:53 AM 52.0 °F 42.1 °F 69% 30.03 in 10.0 mi NW 5.8 mph - N/A   Overcast
2:53 AM 53.1 °F 42.1 °F 66% 30.01 in 10.0 mi NW 6.9 mph - N/A   Overcast
3:53 AM 52.0 °F 43.0 °F 71% 30.01 in 10.0 mi NW 9.2 mph - 0.00 in Rain Light Rain
4:53 AM 51.1 °F 43.0 °F 74% 30.01 in 10.0 mi NW 6.9 mph - 0.00 in Rain Light Rain
5:53 AM 51.1 °F 45.0 °F 80% 30.02 in 10.0 mi NW 6.9 mph - 0.00 in Rain Light Rain
6:53 AM 51.1 °F 44.1 °F 77% 30.03 in 10.0 mi NW 5.8 mph - 0.00 in   Overcast
7:53 AM 51.1 °F 44.1 °F 77% 30.04 in 10.0 mi WNW 4.6 mph - N/A   Mostly Cloudy
8:53 AM 55.9 °F 43.0 °F 62% 30.05 in 10.0 mi NNW 8.1 mph - N/A   Partly Cloudy
9:53 AM 59.0 °F 43.0 °F 55% 30.06 in 10.0 mi NW 13.8 mph - N/A   Clear
10:53 AM 57.9 °F 39.9 °F 51% 30.08 in 10.0 mi NW 12.7 mph - N/A   Partly Cloudy
11:53 AM 60.1 °F 39.9 °F 47% 30.06 in 10.0 mi NNW 12.7 mph - N/A   Clear
12:53 PM 62.1 °F 41.0 °F 46% 30.03 in 10.0 mi NNW 13.8 mph - N/A   Clear
1:53 PM 63.0 °F 39.9 °F 43% 30.03 in 10.0 mi NW 11.5 mph - N/A   Partly Cloudy
2:53 PM 61.0 °F 37.9 °F 42% 30.03 in 10.0 mi West 12.7 mph - N/A   Mostly Cloudy
3:53 PM 62.1 °F 39.0 °F 43% 30.03 in 10.0 mi West 11.5 mph 19.6 mph N/A   Mostly Cloudy
4:53 PM 61.0 °F 37.9 °F 42% 30.05 in 10.0 mi WNW 16.1 mph 26.5 mph N/A   Mostly Cloudy
5:53 PM 60.1 °F 39.0 °F 46% 30.06 in 10.0 mi WNW 11.5 mph 23.0 mph N/A   Clear
6:53 PM 57.0 °F 37.9 °F 49% 30.09 in 10.0 mi West 13.8 mph 25.3 mph N/A   Clear
7:53 PM 55.0 °F 39.0 °F 55% 30.12 in 10.0 mi WNW 13.8 mph 24.2 mph N/A   Clear
8:53 PM 54.0 °F 41.0 °F 62% 30.14 in 10.0 mi West 10.4 mph - N/A   Clear
10:53 PM 52.0 °F 42.1 °F 69% 30.17 in 10.0 mi WNW 11.5 mph - N/A   Clear
11:53 PM 51.1 °F 39.9 °F 66% 30.17 in 10.0 mi NW 12.7 mph - N/A   Clear